Satellite: SO-50
Catalog number: 27607
Epoch time:      12222.75771421
Element set:     833
Inclination:      064.5580 deg
RA of node:       131.9310 deg
Eccentricity:    0.0080014
Arg of perigee:   237.8656 deg
Mean anomaly:     121.4655 deg
Mean motion:   14.72457052 rev/day
Decay rate:       6.55e-06 rev/day^2
Epoch rev:           51785
Checksum:              293

Satellite: CO-55
Catalog number: 27844
Epoch time:      12221.58890935
Element set:     435
Inclination:      098.7040 deg
RA of node:       229.2082 deg
Eccentricity:    0.0010721
Arg of perigee:   071.6143 deg
Mean anomaly:     288.6200 deg
Mean motion:   14.21052461 rev/day
Decay rate:       2.01e-06 rev/day^2
Epoch rev:           47233
Checksum:              272

Satellite: CO-57
Catalog number: 27848
Epoch time:      12222.58769301
Element set:     386
Inclination:      098.7119 deg
RA of node:       229.5505 deg
Eccentricity:    0.0010701
Arg of perigee:   074.9778 deg
Mean anomaly:     285.2576 deg
Mean motion:   14.20800860 rev/day
Decay rate:       1.56e-06 rev/day^2
Epoch rev:           47241
Checksum:              324

Satellite: AO-51
Catalog number: 28375
Epoch time:      12222.47820598
Element set:     336
Inclination:      098.1525 deg
RA of node:       185.2897 deg
Eccentricity:    0.0082580
Arg of perigee:   239.8563 deg
Mean anomaly:     119.4432 deg
Mean motion:   14.40972506 rev/day
Decay rate:        9.8e-07 rev/day^2
Epoch rev:           42644
Checksum:              334

Satellite: CP3
Catalog number: 31129
Epoch time:      12222.58537780
Element set:     233
Inclination:      097.8863 deg
RA of node:       227.2239 deg
Eccentricity:    0.0100185
Arg of perigee:   317.6774 deg
Mean anomaly:     041.6715 deg
Mean motion:   14.53160172 rev/day
Decay rate:       8.51e-06 rev/day^2
Epoch rev:           28173
Checksum:              295

Satellite: CO-65
Catalog number: 32785
Epoch time:      12221.66867577
Element set:    0383
Inclination:      097.7944 deg
RA of node:       281.4713 deg
Eccentricity:    0.0013327
Arg of perigee:   248.2717 deg
Mean anomaly:     111.7084 deg
Mean motion:   14.83099109 rev/day
Decay rate:      1.372e-05 rev/day^2
Epoch rev:           23154
Checksum:              326

Satellite: PRISM
Catalog number: 33493
Epoch time:      12222.86421339
Element set:     959
Inclination:      098.1784 deg
RA of node:       004.7342 deg
Eccentricity:    0.0019868
Arg of perigee:   121.0427 deg
Mean anomaly:     239.2744 deg
Mean motion:   14.84132011 rev/day
Decay rate:      3.096e-05 rev/day^2
Epoch rev:           19171
Checksum:              297

Satellite: SOHLA-1
Catalog number: 33496
Epoch time:      12221.92562073
Element set:    0819
Inclination:      098.1088 deg
RA of node:       333.3252 deg
Eccentricity:    0.0005715
Arg of perigee:   228.8080 deg
Mean anomaly:     131.2634 deg
Mean motion:   14.70010877 rev/day
Decay rate:       2.81e-06 rev/day^2
Epoch rev:           18999
Checksum:              299

Satellite: SO-67
Catalog number: 35870
Epoch time:      12222.89305648
Element set:     218
Inclination:      097.2286 deg
RA of node:       256.7544 deg
Eccentricity:    0.0002461
Arg of perigee:   030.2980 deg
Mean anomaly:     083.7179 deg
Mean motion:   15.24214103 rev/day
Decay rate:      4.525e-05 rev/day^2
Epoch rev:           16079
Checksum:              307

Satellite: TISAT-1
Catalog number: 36799
Epoch time:      12222.74558919
Element set:     235
Inclination:      098.0598 deg
RA of node:       299.4695 deg
Eccentricity:    0.0014923
Arg of perigee:   004.8490 deg
Mean anomaly:     355.2863 deg
Mean motion:   14.82120054 rev/day
Decay rate:      1.808e-05 rev/day^2
Epoch rev:           11242
Checksum:              324

Satellite: STUDSAT
Catalog number: 36801
Epoch time:      12221.91510794
Element set:    0461
Inclination:      098.0660 deg
RA of node:       299.5900 deg
Eccentricity:    0.0012734
Arg of perigee:   353.1749 deg
Mean anomaly:     006.9293 deg
Mean motion:   14.84750214 rev/day
Decay rate:      5.207e-05 rev/day^2
Epoch rev:           11234
Checksum:              283

Satellite: FO-69
Catalog number: 37227
Epoch time:      12179.46825757
Element set:    0219
Inclination:      071.9703 deg
RA of node:       289.2712 deg
Eccentricity:    0.0018108
Arg of perigee:   298.3339 deg
Mean anomaly:     061.6016 deg
Mean motion:   14.77092260 rev/day
Decay rate:       1.66e-06 rev/day^2
Epoch rev:           03761
Checksum:              323

Satellite: FO-70
Catalog number: 37380
Epoch time:      12179.47554455
Element set:    0223
Inclination:      071.9743 deg
RA of node:       289.8278 deg
Eccentricity:    0.0018623
Arg of perigee:   295.0880 deg
Mean anomaly:     064.8372 deg
Mean motion:   14.76843679 rev/day
Decay rate:       2.08e-06 rev/day^2
Epoch rev:           03750
Checksum:              341

Satellite: ALMASAT-1
Catalog number: 38078
Epoch time:      12222.39387379
Element set:     459
Inclination:      069.4880 deg
RA of node:       196.5988 deg
Eccentricity:    0.0751909
Arg of perigee:   182.2093 deg
Mean anomaly:     177.5651 deg
Mean motion:   14.10849374 rev/day
Decay rate:     1.6813e-04 rev/day^2
Epoch rev:            2505
Checksum:              352

